Location: Cambroso
(45.2833°N, 12.0850°E)
Time: 10:36:10
(UTC+00:00)

Cosmos 44 - Pass Details

Date: 21 January 2021
Orbit: 572 x 789 km, 65.1° (Epoch: 28 February)

Event Time Altitude Azimuth Distance (km) Brightness Sun altitude
Rises 18:10:04 0° 207° (SSW) 2,945 7.0 -22.0°
Reaches altitude 10° 18:12:17 10° 206° (SSW) 2,072 6.1 -22.4°
Maximum altitude 18:16:59 73° 122° (ESE) 728 3.1 -23.2°
Enters shadow 18:17:25 68° 81° (E) 753 3.1 -23.3°
